Tracking 25744 objects as of 25-Jun-2022
HD Live streaming from Space Station
objects crossing your sky now

NSS 513 (INTELSAT 513)

Track NSS 513 (INTELSAT 513) now!
NSS 513 (INTELSAT 513) is classified as:


NORAD ID: 19121
Int'l Code: 1988-040A
Perigee: 36,196.0 km
Apogee: 36,356.6 km
Inclination: 15.2 °
Period: 1,460.8 minutes
Semi major axis: 42647 km
RCS: 9.2727 m2 (large)
Launch date: May 17, 1988
Source: Netherlands (NETH)
Launch site: FRENCH GUIANA (FRGUI)
aabbcc
Your satellite tracking list
Your tracking list is empty




NASA's NSSDC Master Catalog

Two Line Element Set (TLE):
1 19121U 88040A   22175.18201510 -.00000138  00000-0  00000-0 0  9992
2 19121  15.2129 359.6672 0018835  82.0532 275.3134  0.98574773100207
Source of the keplerian elements: AFSPC